TimeEDT,TemperatureF,Dew PointF,Humidity,Sea Level PressureIn,VisibilityMPH,Wind Direction,Wind SpeedMPH,Gust SpeedMPH,PrecipitationIn,Events,Conditions,WindDirDegrees,DateUTC
12:51 AM,70.0,66.0,87,29.99,10.0,NE,4.6,-,N/A,,Mostly Cloudy,50,2013-09-21 04:51:00
1:51 AM,69.1,66.0,90,29.97,10.0,NNE,4.6,-,N/A,,Mostly Cloudy,30,2013-09-21 05:51:00
2:51 AM,70.0,66.9,90,29.96,10.0,NE,4.6,-,N/A,,Partly Cloudy,50,2013-09-21 06:51:00
3:51 AM,69.1,66.0,90,29.95,10.0,East,3.5,-,N/A,,Clear,80,2013-09-21 07:51:00
4:51 AM,69.1,66.0,90,29.94,10.0,ENE,4.6,-,N/A,,Clear,70,2013-09-21 08:51:00
5:51 AM,72.0,66.9,84,29.94,10.0,SE,11.5,-,N/A,,Mostly Cloudy,130,2013-09-21 09:51:00
6:51 AM,73.0,64.9,76,29.93,10.0,East,5.8,-,N/A,,Clear,100,2013-09-21 10:51:00
7:51 AM,72.0,66.9,84,29.94,10.0,East,3.5,-,N/A,,Clear,80,2013-09-21 11:51:00
8:51 AM,77.0,69.1,76,29.93,10.0,East,6.9,-,N/A,,Clear,100,2013-09-21 12:51:00
9:51 AM,80.1,68.0,67,29.92,10.0,ESE,8.1,-,N/A,,Partly Cloudy,120,2013-09-21 13:51:00
10:51 AM,82.0,69.1,65,29.92,10.0,ESE,10.4,-,N/A,,Partly Cloudy,120,2013-09-21 14:51:00
11:51 AM,79.0,69.1,72,29.90,10.0,East,8.1,-,N/A,,Mostly Cloudy,100,2013-09-21 15:51:00
12:24 PM,80.6,69.8,70,29.89,10.0,SSW,10.4,18.4,N/A,,Mostly Cloudy,210,2013-09-21 16:24:00
12:51 PM,82.9,68.0,60,29.89,10.0,South,15.0,-,N/A,,Partly Cloudy,170,2013-09-21 16:51:00
1:51 PM,84.0,69.1,61,29.86,10.0,South,11.5,-,N/A,,Clear,170,2013-09-21 17:51:00
2:51 PM,82.9,68.0,60,29.84,10.0,SSW,9.2,-,N/A,,Mostly Cloudy,200,2013-09-21 18:51:00
3:51 PM,78.1,72.0,81,29.82,10.0,West,6.9,-,0.00,Rain,Light Rain,260,2013-09-21 19:51:00
4:51 PM,79.0,70.0,74,29.81,10.0,WSW,9.2,-,0.00,,Clear,240,2013-09-21 20:51:00
5:51 PM,78.1,69.1,74,29.81,10.0,SW,6.9,-,N/A,,Clear,230,2013-09-21 21:51:00
6:51 PM,77.0,69.1,76,29.81,10.0,WSW,6.9,-,N/A,,Clear,250,2013-09-21 22:51:00
7:51 PM,77.0,70.0,79,29.80,10.0,WSW,6.9,-,N/A,,Mostly Cloudy,250,2013-09-21 23:51:00
8:51 PM,75.9,70.0,82,29.79,10.0,WSW,4.6,-,N/A,,Clear,240,2013-09-22 00:51:00
9:51 PM,77.0,70.0,79,29.78,10.0,SSW,5.8,-,N/A,,Overcast,200,2013-09-22 01:51:00
10:51 PM,78.1,71.1,79,29.78,10.0,SSW,8.1,-,N/A,,Overcast,210,2013-09-22 02:51:00
11:51 PM,78.1,71.1,79,29.78,10.0,SW,6.9,-,N/A,,Overcast,230,2013-09-22 03:51:00